[[{"header":{"parameterUnit":"m.s-1","parameterCategory":2,"la1":30.2991,"la2":30.254,"lo1":-89.0895,"lo2":-89.0444,"dy":0.0017,"dx":0.0017,"nx":28,"ny":28,"refTime":"2025-05-25T09:00:00:Z","depth":"0","parameterNumber":2,"parameterNumberName":"U-component_of_CURRENTS"},"data":[0,0,0,0,0,0,0,0,0,0,0,0,0,0,0,0,0,0,0,0,0,0,0,0,0,0,0,0,0,0,0,0,0,0,0,0,0,0,0,0,0,0,0,0,0,0,0,0,0,0,0,0,0,0,0,0,0,0,-0.3085,-0.3085,0,-0.3043,-0.3042,-0.304,-0.2981,-0.2982,-0.2982,-0.2982,-0.2891,-0.2889,-0.2886,0,0,0,0,0,0,0,0,0,0,0,0,0,-0.2975,-0.2977,-0.3085,-0.3085,-0.3086,-0.3043,-0.3042,-0.304,-0.2981,-0.2982,-0.2982,-0.2982,-0.2892,-0.2889,-0.2886,0,0,0,0,0,0,0,0,0,0,0,0,0,-0.2975,-0.2977,-0.3085,-0.3061,-0.3059,-0.3044,-0.3042,-0.3039,-0.2981,-0.2982,-0.2982,-0.2982,-0.2893,-0.2889,-0.2885,-0.2859,0,0,-0.2874,-0.2872,0,0,0,0,0,0,0,0,-0.2975,-0.2978,-0.3063,-0.3062,-0.3061,-0.3028,-0.297,-0.2981,-0.2981,-0.2998,-0.2982,-0.2982,-0.294,-0.2933,-0.2908,-0.2854,-0.285,-0.2874,-0.2871,-0.287,-0.2869,0,0,0,0,0,0,0,-0.2976,-0.2979,-0.3056,-0.3064,-0.3063,-0.3005,-0.3005,-0.297,-0.2958,-0.2996,-0.2995,-0.301,-0.2937,-0.2911,-0.2905,-0.2849,-0.2874,-0.287,-0.2868,-0.2867,-0.273,-0.2729,0,0,0,0,0,0,-0.3013,-0.298,-0.3057,-0.3056,-0.3031,-0.3009,-0.3008,-0.3028,-0.296,-0.2953,-0.301,-0.3008,-0.2918,-0.291,-0.2902,-0.2793,-0.287,-0.2866,-0.2864,-0.2732,-0.273,-0.2729,0,0,0,0,0,0,-0.3011,-0.3021,-0.3059,-0.3025,-0.3028,-0.3013,-0.3034,-0.3028,-0.3011,-0.2973,-0.2963,-0.3003,-0.2918,-0.2907,-0.284,-0.2792,-0.2864,-0.2861,-0.2733,-0.2731,-0.2729,-0.2623,0,0,0,0,0,0,-0.3008,-0.302,-0.3033,-0.3029,-0.3032,-0.2995,-0.3035,-0.3027,-0.3025,-0.3021,-0.2963,-0.2954,-0.2917,-0.2845,-0.2836,-0.2789,-0.2858,-0.2735,-0.2732,-0.273,-0.2628,-0.2618,-0.2609,0,0,0,0,0,-0.3004,-0.3001,-0.3034,-0.3043,-0.3056,-0.2993,-0.2984,-0.2967,-0.3025,-0.2964,-0.2951,-0.2956,-0.2824,-0.284,-0.283,-0.278,-0.2736,-0.2733,-0.273,-0.2633,-0.262,-0.2609,0,0,0,0,0,0,-0.2959,-0.2997,-0.3031,-0.3044,-0.3009,-0.2987,-0.2956,-0.2978,-0.2925,-0.2938,-0.2926,-0.2911,-0.2836,-0.2834,-0.2854,-0.2739,-0.2787,-0.2782,-0.2717,-0.2704,-0.2695,-0.2699,-0.2855,0,0,0,0,0,-0.2967,-0.2974,-0.2985,-0.2991,-0.2981,-0.2985,-0.2969,-0.2957,-0.2928,-0.2908,-0.2872,-0.2851,-0.2815,-0.2782,-0.2735,-0.267,-0.267,-0.2639,-0.2629,-0.2621,-0.2619,-0.2576,-0.2561,-0.2719,-0.2719,-0.2719,0,0,-0.296,-0.2981,-0.2989,-0.2981,-0.297,-0.2904,-0.2968,-0.2928,-0.2872,-0.2908,-0.2811,-0.2809,-0.2793,-0.2701,-0.2671,-0.2691,-0.2572,-0.2617,-0.2609,-0.2613,-0.2571,-0.2555,-0.2541,-0.2717,-0.2717,-0.2717,0,0,-0.2908,-0.2961,-0.293,-0.2891,-0.2871,-0.2853,-0.285,-0.2816,-0.2792,-0.2716,-0.2741,-0.271,-0.2639,-0.2603,-0.2591,-0.251,-0.2525,-0.2513,-0.2452,-0.2409,-0.2395,-0.2383,-0.2345,-0.233,-0.2503,-0.2503,-0.2503,0,-0.2898,-0.2869,-0.2899,-0.2837,-0.28,-0.2833,-0.2753,-0.2722,-0.2663,-0.2657,-0.2661,-0.2613,-0.2585,-0.253,-0.2488,-0.2482,-0.2474,-0.2492,-0.2393,-0.2382,-0.2371,-0.2336,-0.2321,-0.2497,-0.2498,-0.2499,-0.2499,0,-0.2806,-0.2769,-0.2737,-0.268,-0.2631,-0.2562,-0.2538,-0.2494,-0.2507,-0.2502,-0.2458,-0.243,-0.2413,-0.2397,-0.2407,-0.2337,-0.2359,-0.2387,-0.2419,-0.2349,-0.2316,-0.2302,-0.2489,-0.2491,-0.2493,-0.2494,0,0,-0.2792,-0.2696,-0.2681,-0.2616,-0.2542,-0.2485,-0.241,-0.2352,-0.2347,-0.2299,-0.2282,-0.2221,-0.2276,-0.2269,-0.2292,-0.2252,-0.215,-0.2283,-0.2284,-0.2237,-0.2057,-0.1987,-0.1967,-0.2164,-0.2161,-0.2159,-0.2056,0,-0.2698,-0.2555,-0.2538,-0.2378,-0.2282,-0.2285,-0.2215,-0.2183,-0.2183,-0.2162,-0.2195,-0.2176,-0.221,-0.2217,-0.2178,-0.2188,-0.2115,-0.2176,-0.2141,-0.2139,-0.2078,-0.1948,-0.185,-0.1743,-0.2044,-0.2042,-0.204,0,-0.2578,-0.2497,-0.2338,-0.2219,-0.2191,-0.2112,-0.2049,-0.1994,-0.2008,-0.2026,-0.2049,-0.2103,-0.2079,-0.2107,-0.2051,-0.2097,-0.205,-0.2039,-0.2036,-0.2002,-0.2044,-0.1867,-0.1708,-0.1702,-0.202,-0.2022,-0.2023,0,-0.2475,-0.2342,-0.2218,-0.2166,-0.2052,-0.2005,-0.196,-0.1951,-0.1928,-0.1954,-0.1967,-0.199,-0.1991,-0.1964,-0.197,-0.2,-0.1902,-0.1941,-0.182,-0.1816,-0.174,-0.1733,-0.1563,-0.183,-0.183,-0.183,-0.1831,0,-0.2324,-0.2203,-0.2167,-0.2066,-0.1956,-0.192,-0.1836,-0.1824,-0.1831,-0.1798,-0.1898,-0.1877,-0.1951,-0.1939,-0.193,-0.1838,-0.1861,-0.1772,-0.1765,-0.1699,-0.1689,-0.1692,-0.1734,-0.1826,-0.1827,-0.1828,-0.1829,0,-0.214,-0.2124,-0.1972,-0.1894,-0.1874,-0.1788,-0.1731,-0.1687,-0.1726,-0.1686,-0.1694,-0.177,-0.1746,-0.1809,-0.1765,-0.1759,-0.1659,-0.1645,-0.1571,-0.1555,-0.1434,-0.1474,-0.1334,-0.13,-0.1484,-0.1482,-0.1479,0,-0.1983,-0.1898,-0.1846,-0.1788,-0.1732,-0.1643,-0.1585,-0.1607,-0.1574,-0.1595,-0.156,-0.1575,-0.1502,-0.1468,-0.1496,-0.1452,-0.1499,-0.1348,-0.1362,-0.1366,-0.1407,-0.1464,-0.1452,-0.122,-0.1216,-0.1212,-0.121,0,-0.1675,-0.172,-0.1637,-0.1558,-0.1491,-0.1428,-0.1355,-0.133,-0.1359,-0.134,-0.1259,-0.12,-0.1193,-0.1116,-0.1144,-0.1139,-0.1317,-0.1272,-0.1284,-0.1168,-0.121,-0.1196,-0.1375,-0.1179,-0.1182,-0.1184,-0.1186,-0.1187,-0.1452,-0.1391,-0.1354,-0.127,-0.1239,-0.1174,-0.1073,-0.1052,-0.098,-0.09,-0.0927,-0.0755,-0.0765,-0.0768,-0.083,-0.0931,-0.1013,-0.0933,-0.0976,-0.103,-0.0995,-0.1101,-0.0901,-0.0903,-0.0904,-0.0905,-0.0906,0,-0.1102,-0.1103,-0.1038,-0.0959,-0.0888,-0.0948,-0.0882,-0.078,-0.0654,-0.0588,-0.0461,-0.0251,-0.0279,-0.0411,-0.0613,-0.0655,-0.07,-0.07,-0.0761,-0.0759,-0.0832,-0.0818,-0.0581,-0.0581,-0.0581,-0.0581,-0.0581,-0.0581,-0.0902,-0.0775,-0.0803,-0.062,-0.0598,-0.0464,-0.0417,-0.0324,-0.0242,-0.0009,0.015,0.0249,0.0108,-0.0268,-0.0524,-0.0568,-0.0612,-0.0586,-0.0655,-0.0726,-0.0753,-0.0778,-0.0771,-0.0528,-0.0528,-0.0539,-0.0539,-0.0539]},{"header":{"parameterUnit":"m.s-1","parameterCategory":2,"la1":30.2991,"la2":30.254,"lo1":-89.0895,"lo2":-89.0444,"dy":0.0017,"dx":0.0017,"nx":28,"ny":28,"refTime":"2025-05-25T09:00:00:Z","depth":"0","parameterNumber":3,"parameterNumberName":"V-component_of_CURRENTS"},"data":[0,0,0,0,0,0,0,0,0,0,0,0,0,0,0,0,0,0,0,0,0,0,0,0,0,0,0,0,0,0,0,0,0,0,0,0,0,0,0,0,0,0,0,0,0,0,0,0,0,0,0,0,0,0,0,0,0,0,-0.0469,-0.0466,0,-0.0075,-0.0069,-0.0063,0.0168,0.0167,0.0166,0.0165,0.0557,0.0568,0.0579,0,0,0,0,0,0,0,0,0,0,0,0,0,-0.0624,-0.0623,-0.0469,-0.0466,-0.0463,-0.0076,-0.0068,-0.0061,0.0168,0.0167,0.0166,0.0165,0.0553,0.0567,0.058,0,0,0,0,0,0,0,0,0,0,0,0,0,-0.0409,-0.0623,-0.047,-0.0316,-0.03,-0.0077,-0.0068,-0.0059,0.0168,0.0167,0.0165,0.0164,0.0549,0.0565,0.0582,0.071,0,0,0.0633,0.064,0,0,0,0,0,0,0,0,-0.0422,-0.0401,-0.0342,-0.0327,-0.0308,-0.0021,0.002,0.0192,0.0168,0.0011,0.0165,0.0164,0.0352,0.0385,0.0489,0.0729,0.0746,0.0635,0.0645,0.0652,0.0657,0,0,0,0,0,0,0,-0.0437,-0.0415,-0.0293,-0.0339,-0.0318,-0.0131,-0.0103,0.0057,0.0198,0.0024,0.0037,0.0051,0.0364,0.0473,0.05,0.0751,0.0634,0.0649,0.066,0.0666,0.0984,0.0983,0,0,0,0,0,0,-0.0544,-0.0431,-0.0306,-0.0284,-0.0391,-0.0131,-0.0098,-0.0096,0.0197,0.0235,0.0051,0.006,0.0445,0.048,0.0514,0.0647,0.0652,0.0668,0.0677,0.0986,0.0984,0.0982,0,0,0,0,0,0,-0.0549,-0.0537,-0.0323,-0.0362,-0.0324,-0.0132,-0.0127,-0.0088,0.002,0.0214,0.0256,0.0115,0.0445,0.049,0.0656,0.0664,0.0675,0.0691,0.0988,0.0985,0.0983,0.0935,0,0,0,0,0,0,-0.0555,-0.0541,-0.0561,-0.0371,-0.0327,-0.0184,-0.0127,-0.008,0.0021,0.0037,0.0283,0.0318,0.0448,0.063,0.0673,0.0687,0.0704,0.099,0.0987,0.0984,0.0938,0.0931,0.0924,0,0,0,0,0,-0.0562,-0.0574,-0.0564,-0.0549,-0.0367,-0.0184,-0.0139,0.0008,0.0024,0.0098,0.0237,0.0311,0.0637,0.0646,0.0695,0.0714,0.0991,0.0988,0.0984,0.0941,0.0932,0.0925,0,0,0,0,0,0,-0.063,-0.0548,-0.0533,-0.0519,-0.0375,-0.0153,-0.0088,-0.0001,0.0177,0.0177,0.035,0.04,0.0528,0.0617,0.062,0.0779,0.0803,0.0809,0.0753,0.0746,0.0739,0.0728,0.0718,0,0,0,0,0,-0.0675,-0.0676,-0.0536,-0.0522,-0.0466,-0.0285,-0.0199,-0.0097,0.0068,0.0147,0.03,0.0431,0.0556,0.0645,0.0771,0.0907,0.0929,0.0923,0.0916,0.091,0.0925,0.096,0.0959,0.097,0.097,0.097,0,0,-0.07,-0.066,-0.0658,-0.054,-0.0423,-0.03,-0.0228,-0.0099,0.0011,0.0158,0.0337,0.0429,0.0579,0.0715,0.0776,0.0799,0.0904,0.0905,0.0901,0.0919,0.0956,0.0956,0.0955,0.0968,0.0968,0.0968,0,0,-0.0708,-0.0715,-0.0689,-0.0578,-0.0439,-0.0322,-0.0302,-0.0093,0.0005,0.0185,0.027,0.0367,0.0603,0.07,0.0779,0.0805,0.0856,0.0809,0.0808,0.084,0.0841,0.0842,0.0814,0.0813,0.082,0.082,0.082,0,-0.0738,-0.0692,-0.0639,-0.0552,-0.0473,-0.0347,-0.0245,-0.0109,0.0126,0.019,0.0222,0.0482,0.06,0.0742,0.0744,0.0798,0.0799,0.0841,0.0835,0.0837,0.0839,0.0811,0.081,0.0817,0.0818,0.0818,0.0818,0,-0.0685,-0.064,-0.0605,-0.0487,-0.0391,-0.028,-0.0129,-0.0029,0.0062,0.019,0.0332,0.0486,0.0627,0.0655,0.074,0.0794,0.0779,0.0813,0.0864,0.0835,0.0806,0.0806,0.0813,0.0814,0.0815,0.0816,0,0,-0.0738,-0.0602,-0.0582,-0.0525,-0.035,-0.026,-0.0132,0.0035,0.0088,0.0277,0.0366,0.0559,0.0589,0.0671,0.0742,0.0789,0.0786,0.0807,0.081,0.0792,0.0809,0.0815,0.0816,0.0822,0.0823,0.0824,0.0764,0,-0.0687,-0.0563,-0.0502,-0.0364,-0.0271,-0.0169,-0.0074,0.0065,0.018,0.0289,0.0421,0.053,0.0611,0.0641,0.0708,0.0769,0.0793,0.0796,0.083,0.083,0.0853,0.0821,0.0892,0.0849,0.0765,0.0766,0.0766,0,-0.0613,-0.0549,-0.0424,-0.0324,-0.0285,-0.0206,-0.0094,0.0013,0.0165,0.0237,0.0359,0.0458,0.0572,0.0614,0.0732,0.0726,0.0761,0.0804,0.0803,0.0839,0.0841,0.0874,0.0853,0.0931,0.0767,0.0767,0.0767,0,-0.0624,-0.0487,-0.0412,-0.0354,-0.022,-0.0188,-0.0133,-0.0004,0.005,0.0186,0.0218,0.0383,0.0453,0.0541,0.0664,0.0684,0.0758,0.079,0.0823,0.082,0.0906,0.0911,0.0988,0.0847,0.0848,0.0848,0.0848,0,-0.0555,-0.0486,-0.0427,-0.0363,-0.0327,-0.0239,-0.0199,-0.0122,-0.0046,0.0013,0.0165,0.0263,0.0442,0.0538,0.0621,0.0723,0.0722,0.0817,0.0821,0.0882,0.0885,0.0979,0.1005,0.0845,0.0846,0.0846,0.0847,0,-0.0516,-0.0466,-0.0389,-0.0318,-0.0311,-0.0289,-0.0259,-0.0233,-0.0172,-0.0102,-0.0069,0.0159,0.0311,0.0442,0.0591,0.0665,0.0803,0.0776,0.0806,0.0817,0.093,0.095,0.1006,0.1078,0.0793,0.0793,0.0793,0,-0.0459,-0.0417,-0.0389,-0.0383,-0.0348,-0.033,-0.0324,-0.0285,-0.0265,-0.0128,-0.0093,0.0086,0.0325,0.0519,0.0632,0.0729,0.082,0.0823,0.09,0.0946,0.0971,0.0975,0.1034,0.0958,0.096,0.0961,0.0962,0,-0.0362,-0.0385,-0.0351,-0.0358,-0.0362,-0.0371,-0.0366,-0.0382,-0.0325,-0.0274,-0.0088,0.0126,0.0394,0.0665,0.0774,0.0832,0.0904,0.0849,0.0921,0.1129,0.1118,0.1187,0.0934,0.0972,0.0971,0.097,0.097,0.0969,-0.0311,-0.0313,-0.0307,-0.0315,-0.0339,-0.0369,-0.0364,-0.0364,-0.0338,-0.0203,-0.0052,0.0273,0.0703,0.0948,0.0934,0.1006,0.0991,0.1097,0.1112,0.1107,0.1212,0.0946,0.0985,0.0984,0.0983,0.0982,0.0982,0,-0.0206,-0.0234,-0.0254,-0.0268,-0.0284,-0.0312,-0.0347,-0.0313,-0.0256,-0.0128,0.0073,0.0586,0.0924,0.1147,0.1292,0.1305,0.1308,0.1324,0.1381,0.1429,0.1226,0.1273,0.1348,0.1348,0.1348,0.1348,0.1348,0.1348,-0.0147,-0.0144,-0.0185,-0.0189,-0.0207,-0.0206,-0.0215,-0.0164,-0.0083,0.0195,0.0456,0.072,0.12,0.1441,0.1551,0.154,0.1633,0.1585,0.1615,0.1508,0.1489,0.1471,0.1524,0.1651,0.1651,0.1864,0.1866,0.1868]}],[{"header":{"parameterUnit":"m.s-1","parameterCategory":2,"la1":30.2991,"la2":30.254,"lo1":-89.0895,"lo2":-89.0444,"dy":0.0017,"dx":0.0017,"nx":28,"ny":28,"refTime":"2025-05-25T09:00:00:Z","depth":"2","parameterNumber":2,"parameterNumberName":"U-component_of_CURRENTS"},"data":[0,0,0,0,0,0,0,0,0,0,0,0,0,0,0,0,0,0,0,0,0,0,0,0,0,0,0,0,0,0,0,0,0,0,0,0,0,0,0,0,0,0,0,0,0,0,0,0,0,0,0,0,0,0,0,0,0,0,-0.1993,-0.1995,0,-0.2101,-0.2102,-0.2103,-0.2178,-0.2179,-0.218,-0.218,-0.2312,-0.2315,-0.2318,0,0,0,0,0,0,0,0,0,0,0,0,0,-0.1872,-0.1874,-0.1993,-0.1995,-0.1996,-0.2101,-0.2102,-0.2103,-0.2178,-0.2179,-0.218,-0.2181,-0.2311,-0.2315,-0.2318,0,0,0,0,0,0,0,0,0,0,0,0,0,-0.1944,-0.1874,-0.1993,-0.2049,-0.2055,-0.2101,-0.2102,-0.2104,-0.2177,-0.2179,-0.218,-0.2181,-0.231,-0.2314,-0.2318,-0.2317,0,0,-0.2331,-0.2332,0,0,0,0,0,0,0,0,-0.1939,-0.1948,-0.2039,-0.2045,-0.2052,-0.213,-0.2108,-0.2177,-0.2177,-0.2127,-0.218,-0.2182,-0.2255,-0.2263,-0.2276,-0.2323,-0.2329,-0.2331,-0.2333,-0.2335,-0.2336,0,0,0,0,0,0,0,-0.1934,-0.1944,-0.2033,-0.204,-0.2049,-0.2076,-0.2086,-0.2121,-0.218,-0.2132,-0.2138,-0.2155,-0.2258,-0.2272,-0.228,-0.2331,-0.2331,-0.2335,-0.2337,-0.2339,-0.246,-0.246,0,0,0,0,0,0,-0.1925,-0.1939,-0.2029,-0.2036,-0.2001,-0.2077,-0.2089,-0.2101,-0.218,-0.2194,-0.2154,-0.2158,-0.2264,-0.2275,-0.2285,-0.2317,-0.2335,-0.2339,-0.2341,-0.2459,-0.246,-0.2461,0,0,0,0,0,0,-0.1922,-0.1932,-0.2025,-0.1993,-0.2007,-0.2078,-0.2091,-0.2103,-0.2141,-0.2197,-0.2211,-0.2183,-0.2266,-0.2279,-0.234,-0.2322,-0.2341,-0.2345,-0.2458,-0.2459,-0.246,-0.2363,0,0,0,0,0,0,-0.1918,-0.193,-0.1949,-0.1992,-0.2009,-0.2056,-0.209,-0.2104,-0.2149,-0.2156,-0.2226,-0.2238,-0.2268,-0.2333,-0.2344,-0.2328,-0.2348,-0.2457,-0.2458,-0.246,-0.2366,-0.2361,-0.2357,0,0,0,0,0,-0.1913,-0.1911,-0.1948,-0.1961,-0.2027,-0.2056,-0.2066,-0.2119,-0.2149,-0.2159,-0.2218,-0.2237,-0.235,-0.2337,-0.2349,-0.2334,-0.2456,-0.2458,-0.246,-0.2367,-0.2362,-0.2357,0,0,0,0,0,0,-0.1865,-0.1921,-0.1962,-0.1979,-0.2025,-0.207,-0.208,-0.2126,-0.2179,-0.2193,-0.2249,-0.2265,-0.2319,-0.2347,-0.2332,-0.2378,-0.2405,-0.2409,-0.2331,-0.2326,-0.2322,-0.2305,-0.2351,0,0,0,0,0,-0.1865,-0.1871,-0.1942,-0.195,-0.1974,-0.2035,-0.2061,-0.21,-0.2148,-0.2174,-0.2223,-0.2279,-0.233,-0.2346,-0.2401,-0.2414,-0.2403,-0.2416,-0.2412,-0.2407,-0.2405,-0.237,-0.236,-0.2466,-0.2466,-0.2466,0,0,-0.1849,-0.1876,-0.1884,-0.194,-0.1974,-0.1999,-0.2052,-0.2083,-0.2112,-0.2179,-0.2223,-0.2278,-0.2341,-0.2368,-0.2391,-0.2386,-0.2368,-0.241,-0.2405,-0.2405,-0.2371,-0.236,-0.235,-0.2467,-0.2467,-0.2467,0,0,-0.1798,-0.1842,-0.1841,-0.1874,-0.1933,-0.1972,-0.1987,-0.2051,-0.2092,-0.215,-0.2205,-0.2247,-0.2325,-0.2345,-0.2372,-0.2378,-0.2366,-0.2399,-0.2335,-0.23,-0.229,-0.228,-0.2221,-0.2208,-0.2372,-0.2371,-0.2371,0,-0.179,-0.1793,-0.1843,-0.1851,-0.1872,-0.1958,-0.1969,-0.2018,-0.2096,-0.2115,-0.216,-0.2258,-0.231,-0.2325,-0.2331,-0.2363,-0.2335,-0.2339,-0.2288,-0.2279,-0.2271,-0.2213,-0.2199,-0.2367,-0.2367,-0.2368,-0.2368,0,-0.1742,-0.176,-0.1749,-0.1792,-0.1821,-0.1833,-0.1915,-0.1952,-0.2017,-0.2065,-0.2122,-0.2193,-0.2243,-0.226,-0.2303,-0.2272,-0.2265,-0.2298,-0.2284,-0.2253,-0.2196,-0.2183,-0.2361,-0.2362,-0.2363,-0.2365,0,0,-0.1692,-0.1719,-0.172,-0.1737,-0.1793,-0.1814,-0.1846,-0.1899,-0.1927,-0.2001,-0.2018,-0.2102,-0.214,-0.2175,-0.2218,-0.2182,-0.21,-0.2206,-0.2206,-0.2117,-0.199,-0.1925,-0.1905,-0.211,-0.2108,-0.2106,-0.1959,0,-0.1652,-0.1646,-0.167,-0.1676,-0.1688,-0.1751,-0.1778,-0.1834,-0.1897,-0.1934,-0.1995,-0.205,-0.2109,-0.2135,-0.2108,-0.2131,-0.2068,-0.2136,-0.2062,-0.2059,-0.198,-0.1889,-0.1771,-0.1625,-0.1946,-0.1944,-0.1943,0,-0.1604,-0.1611,-0.1602,-0.1634,-0.1647,-0.1661,-0.1708,-0.1747,-0.1807,-0.1857,-0.1892,-0.1963,-0.1962,-0.2021,-0.1977,-0.2014,-0.1992,-0.1985,-0.1979,-0.1946,-0.197,-0.1719,-0.159,-0.1921,-0.1923,-0.1925,-0.1926,0,-0.1541,-0.1561,-0.155,-0.156,-0.1613,-0.1617,-0.165,-0.1709,-0.1746,-0.1799,-0.1828,-0.1852,-0.1882,-0.1856,-0.1884,-0.1916,-0.1812,-0.1855,-0.1757,-0.1752,-0.1653,-0.1642,-0.1782,-0.1782,-0.1783,-0.1783,-0.1783,0,-0.1481,-0.1478,-0.1523,-0.1519,-0.1524,-0.1574,-0.1585,-0.163,-0.1682,-0.1705,-0.1786,-0.1807,-0.1844,-0.1823,-0.1822,-0.174,-0.1757,-0.1715,-0.17,-0.1616,-0.1604,-0.1887,-0.1901,-0.1778,-0.1779,-0.178,-0.1781,0,-0.1409,-0.1435,-0.1431,-0.1475,-0.1489,-0.1493,-0.1545,-0.1558,-0.1626,-0.1649,-0.1668,-0.1745,-0.1707,-0.1713,-0.1664,-0.1654,-0.1591,-0.1556,-0.1444,-0.1419,-0.1561,-0.1573,-0.14,-0.1397,-0.1393,-0.1391,-0.1389,0,-0.1363,-0.1351,-0.1386,-0.1385,-0.14,-0.1421,-0.1434,-0.1513,-0.1531,-0.1612,-0.1612,-0.1613,-0.1609,-0.1508,-0.1446,-0.1353,-0.1463,-0.1217,-0.1264,-0.1514,-0.1517,-0.1534,-0.1549,-0.108,-0.1076,-0.1072,-0.1069,0,-0.128,-0.1294,-0.1299,-0.1294,-0.1301,-0.1314,-0.134,-0.1352,-0.1439,-0.1465,-0.1492,-0.1497,-0.1423,-0.1286,-0.1184,-0.1137,-0.1225,-0.1137,-0.1393,-0.1214,-0.1205,-0.1212,-0.1238,-0.1036,-0.1039,-0.1042,-0.1043,-0.1045,-0.1215,-0.1197,-0.1199,-0.1191,-0.12,-0.119,-0.1164,-0.1203,-0.1213,-0.1227,-0.1311,-0.1259,-0.1262,-0.1021,-0.0949,-0.0868,-0.0966,-0.0944,-0.0958,-0.0976,-0.0983,-0.0971,-0.0757,-0.0759,-0.076,-0.0762,-0.0763,0,-0.1124,-0.1113,-0.1093,-0.1076,-0.1043,-0.1084,-0.1086,-0.1046,-0.1014,-0.1042,-0.1044,-0.0922,-0.0822,-0.0804,-0.062,-0.0602,-0.0627,-0.0586,-0.0628,-0.0659,-0.0687,-0.0685,-0.0377,-0.0376,-0.0375,-0.0374,0,0,-0.1074,-0.1026,-0.1015,-0.0926,-0.0911,-0.0835,-0.0813,-0.0778,-0.0771,-0.0716,-0.0677,-0.0753,-0.0776,-0.058,-0.0539,-0.0425,-0.0547,-0.0398,-0.0702,-0.0782,-0.081,-0.0879,-0.0907,0,0,0,0,0]},{"header":{"parameterUnit":"m.s-1","parameterCategory":2,"la1":30.2991,"la2":30.254,"lo1":-89.0895,"lo2":-89.0444,"dy":0.0017,"dx":0.0017,"nx":28,"ny":28,"refTime":"2025-05-25T09:00:00:Z","depth":"2","parameterNumber":3,"parameterNumberName":"V-component_of_CURRENTS"},"data":[0,0,0,0,0,0,0,0,0,0,0,0,0,0,0,0,0,0,0,0,0,0,0,0,0,0,0,0,0,0,0,0,0,0,0,0,0,0,0,0,0,0,0,0,0,0,0,0,0,0,0,0,0,0,0,0,0,0,-0.0472,-0.0471,0,-0.0351,-0.0349,-0.0347,-0.023,-0.0229,-0.0228,-0.0227,0.003,0.0035,0.0041,0,0,0,0,0,0,0,0,0,0,0,0,0,-0.053,-0.053,-0.0472,-0.0471,-0.047,-0.0351,-0.0349,-0.0347,-0.023,-0.0229,-0.0228,-0.0227,0.0028,0.0035,0.0042,0,0,0,0,0,0,0,0,0,0,0,0,0,-0.0461,-0.053,-0.0472,-0.0402,-0.0394,-0.0351,-0.0349,-0.0346,-0.023,-0.0229,-0.0227,-0.0226,0.0025,0.0034,0.0043,0.0068,0,0,0.007,0.0074,0,0,0,0,0,0,0,0,-0.0466,-0.0459,-0.0413,-0.0406,-0.0398,-0.0309,-0.0276,-0.0203,-0.0231,-0.0287,-0.0227,-0.0225,-0.0076,-0.0059,-0.0033,0.008,0.0091,0.0071,0.0076,0.008,0.0082,0,0,0,0,0,0,0,-0.047,-0.0463,-0.0418,-0.0412,-0.0403,-0.0352,-0.034,-0.0261,-0.0184,-0.0282,-0.0274,-0.027,-0.007,-0.0042,-0.0026,0.0095,0.007,0.0078,0.0084,0.0087,0.0316,0.0317,0,0,0,0,0,0,-0.0502,-0.0468,-0.0422,-0.0415,-0.0435,-0.0353,-0.034,-0.0334,-0.0188,-0.0167,-0.0272,-0.0265,-0.0058,-0.0036,-0.0016,0.0088,0.008,0.0088,0.0093,0.0315,0.0316,0.0317,0,0,0,0,0,0,-0.0504,-0.0499,-0.0427,-0.0443,-0.0431,-0.0354,-0.0349,-0.0333,-0.0299,-0.0183,-0.0157,-0.0254,-0.0056,-0.0029,0.0091,0.0097,0.0092,0.01,0.0314,0.0316,0.0317,0.0256,0,0,0,0,0,0,-0.0506,-0.0501,-0.0507,-0.0446,-0.0431,-0.0402,-0.035,-0.0332,-0.0302,-0.0292,-0.0159,-0.0134,-0.0052,0.0078,0.01,0.0109,0.0107,0.0313,0.0315,0.0316,0.0257,0.0254,0.0253,0,0,0,0,0,-0.0509,-0.0518,-0.0508,-0.0503,-0.0443,-0.0403,-0.039,-0.0326,-0.0303,-0.029,-0.0176,-0.0138,0.0101,0.0087,0.0112,0.0124,0.0313,0.0315,0.0316,0.0257,0.0255,0.0253,0,0,0,0,0,0,-0.0539,-0.0506,-0.0494,-0.0491,-0.0456,-0.0385,-0.0372,-0.0337,-0.0243,-0.0225,-0.0111,-0.0077,0.0027,0.0082,0.0062,0.0193,0.0206,0.0212,0.0152,0.015,0.0148,0.0106,0.0114,0,0,0,0,0,-0.0558,-0.0557,-0.0516,-0.0514,-0.0503,-0.0443,-0.0421,-0.0382,-0.0298,-0.0257,-0.0163,-0.0057,0.0049,0.0106,0.02,0.0275,0.0295,0.0294,0.0292,0.029,0.0272,0.0319,0.0318,0.0323,0.0323,0.0323,0,0,-0.057,-0.0553,-0.0552,-0.0522,-0.0489,-0.0468,-0.0423,-0.0396,-0.0364,-0.0243,-0.0158,-0.0057,0.0069,0.0167,0.0214,0.0218,0.0298,0.0292,0.0289,0.0273,0.032,0.032,0.0319,0.0324,0.0324,0.0323,0,0,-0.0591,-0.0581,-0.0586,-0.0562,-0.053,-0.0493,-0.0492,-0.0426,-0.0381,-0.0294,-0.0192,-0.0085,0.0057,0.0156,0.0224,0.0262,0.0288,0.028,0.0239,0.0284,0.0283,0.0283,0.0293,0.0295,0.0277,0.0276,0.0276,0,-0.0608,-0.0604,-0.058,-0.0574,-0.0556,-0.051,-0.05,-0.0453,-0.0351,-0.0308,-0.0274,-0.005,0.0053,0.0185,0.0204,0.0257,0.0268,0.0238,0.0278,0.0279,0.0279,0.029,0.0292,0.0274,0.0274,0.0274,0.0275,0,-0.0622,-0.0621,-0.0621,-0.06,-0.0579,-0.0564,-0.051,-0.0475,-0.042,-0.036,-0.0234,-0.0086,0.0047,0.0091,0.0168,0.0231,0.0232,0.027,0.0275,0.0274,0.0287,0.029,0.027,0.0271,0.0272,0.0272,0,0,-0.065,-0.0635,-0.0635,-0.063,-0.059,-0.0573,-0.0535,-0.0476,-0.0443,-0.0343,-0.0273,-0.0097,-0.0033,0.0046,0.015,0.0187,0.021,0.0216,0.022,0.0208,0.0274,0.0298,0.0304,0.0247,0.0247,0.0248,0.0275,0,-0.0665,-0.0669,-0.065,-0.0642,-0.0637,-0.0591,-0.0556,-0.05,-0.0433,-0.0357,-0.0225,-0.0115,-0.0045,0.0026,0.0078,0.0198,0.0216,0.0196,0.0292,0.0294,0.0302,0.0309,0.0289,0.0314,0.0278,0.0278,0.0279,0,-0.0679,-0.068,-0.0684,-0.0661,-0.0654,-0.0641,-0.0586,-0.0547,-0.0446,-0.0388,-0.028,-0.0179,-0.0056,-0.0018,0.0133,0.0113,0.0171,0.0234,0.0238,0.0281,0.0325,0.0315,0.0321,0.0284,0.0284,0.0283,0.0283,0,-0.0706,-0.0699,-0.0705,-0.0697,-0.0666,-0.0655,-0.063,-0.0556,-0.0516,-0.0411,-0.0363,-0.0217,-0.0117,-0.003,0.0123,0.0118,0.0255,0.0277,0.034,0.0341,0.0353,0.0356,0.033,0.033,0.033,0.033,0.033,0,-0.0724,-0.0727,-0.0723,-0.0724,-0.0724,-0.0689,-0.0667,-0.0623,-0.0547,-0.0494,-0.0379,-0.0296,-0.012,-0.0002,0.0095,0.0239,0.024,0.0322,0.0355,0.0332,0.0332,0.0335,0.0336,0.0331,0.0331,0.0331,0.0331,0,-0.0749,-0.0746,-0.0755,-0.0743,-0.0741,-0.0741,-0.0707,-0.0684,-0.0614,-0.0543,-0.051,-0.0345,-0.0186,-0.0026,0.0144,0.0223,0.0343,0.0381,0.0328,0.0355,0.0389,0.0386,0.0434,0.0435,0.0436,0.0437,0.0437,0,-0.076,-0.077,-0.0781,-0.0793,-0.0792,-0.0787,-0.0779,-0.0722,-0.0691,-0.0565,-0.0525,-0.036,-0.0219,0.0038,0.021,0.0371,0.0379,0.042,0.0417,0.0374,0.0402,0.0398,0.0393,0.0399,0.0399,0.0399,0.04,0,-0.0781,-0.0789,-0.0803,-0.0831,-0.0841,-0.0841,-0.0823,-0.0809,-0.0727,-0.0656,-0.0534,-0.0422,-0.0158,0.0054,0.0273,0.036,0.0396,0.043,0.0422,0.0382,0.0347,0.0372,0.0368,0.0402,0.0402,0.0402,0.0402,0.0402,-0.0799,-0.0821,-0.0843,-0.0866,-0.0881,-0.0883,-0.0875,-0.0835,-0.0778,-0.0645,-0.0558,-0.0358,-0.0179,0.0165,0.0301,0.0442,0.0442,0.0459,0.0456,0.0454,0.0451,0.0421,0.0487,0.0487,0.0487,0.0487,0.0487,0,-0.0818,-0.0842,-0.0869,-0.0899,-0.0916,-0.0912,-0.0891,-0.0856,-0.0785,-0.0621,-0.0494,-0.0288,-0.0061,0.0147,0.0372,0.0474,0.0457,0.0482,0.044,0.0437,0.0435,0.0429,0.0461,0.0461,0.0461,0.0461,0,0,-0.0832,-0.0865,-0.0879,-0.0918,-0.0935,-0.0937,-0.0922,-0.0853,-0.0729,-0.0552,-0.0385,-0.0232,-0.0002,0.013,0.0265,0.0389,0.0384,0.0392,0.0404,0.0337,0.0334,0.0414,0.0402,0,0,0,0,0]}],[{"header":{"parameterUnit":"m.s-1","parameterCategory":2,"la1":30.2991,"la2":30.254,"lo1":-89.0895,"lo2":-89.0444,"dy":0.0017,"dx":0.0017,"nx":28,"ny":28,"refTime":"2025-05-25T09:00:00:Z","depth":"4","parameterNumber":2,"parameterNumberName":"U-component_of_CURRENTS"},"data":[0,0,0,0,0,0,0,0,0,0,0,0,0,0,0,0,0,0,0,0,0,0,0,0,0,0,0,0,0,0,0,0,0,0,0,0,0,0,0,0,0,0,0,0,0,0,0,0,0,0,0,0,0,0,0,0,0,0,-0.1137,-0.1137,0,-0.118,-0.118,-0.118,-0.1209,-0.121,-0.121,-0.1211,-0.1214,-0.1213,-0.1213,0,0,0,0,0,0,0,0,0,0,0,0,0,-0.104,-0.1041,-0.1137,-0.1137,-0.1138,-0.118,-0.118,-0.118,-0.1209,-0.121,-0.121,-0.1211,-0.1214,-0.1213,-0.1213,0,0,0,0,0,0,0,0,0,0,0,0,0,-0.1079,-0.1042,-0.1136,-0.116,-0.1163,-0.118,-0.118,-0.1181,-0.1209,-0.121,-0.121,-0.1211,-0.1214,-0.1213,-0.1213,-0.1193,0,0,-0.1211,-0.1211,0,0,0,0,0,0,0,0,-0.1077,-0.1082,-0.1156,-0.1159,-0.1162,-0.1193,-0.1148,-0.1184,-0.1209,-0.1188,-0.1211,-0.1212,-0.1205,-0.1205,-0.1207,-0.1193,-0.1194,-0.1211,-0.1211,-0.121,-0.121,0,0,0,0,0,0,0,-0.1074,-0.108,-0.115,-0.1157,-0.1161,-0.1156,-0.1162,-0.1154,-0.1188,-0.1189,-0.1193,-0.1203,-0.1206,-0.1207,-0.1207,-0.1194,-0.1211,-0.121,-0.121,-0.121,-0.1274,-0.1276,0,0,0,0,0,0,-0.1077,-0.1078,-0.1149,-0.1152,-0.1125,-0.1157,-0.1164,-0.1179,-0.1189,-0.1192,-0.1202,-0.1204,-0.1208,-0.1208,-0.1207,-0.1234,-0.121,-0.121,-0.1209,-0.1272,-0.1275,-0.1277,0,0,0,0,0,0,-0.1075,-0.1083,-0.1147,-0.1118,-0.1126,-0.1159,-0.1175,-0.118,-0.1206,-0.12,-0.1202,-0.1227,-0.1209,-0.1208,-0.1228,-0.1233,-0.1209,-0.1209,-0.127,-0.1273,-0.1276,-0.1256,0,0,0,0,0,0,-0.1072,-0.1082,-0.1097,-0.1119,-0.1128,-0.1172,-0.1175,-0.118,-0.1211,-0.1215,-0.1221,-0.122,-0.1209,-0.1229,-0.1227,-0.1231,-0.1208,-0.1267,-0.1271,-0.1275,-0.1254,-0.1258,-0.1261,0,0,0,0,0,-0.1069,-0.1089,-0.1097,-0.1106,-0.1147,-0.1173,-0.1177,-0.1199,-0.1212,-0.1225,-0.1237,-0.1222,-0.1253,-0.1229,-0.1227,-0.1231,-0.1265,-0.127,-0.1275,-0.1252,-0.1257,-0.1261,0,0,0,0,0,0,-0.106,-0.1094,-0.1104,-0.1136,-0.1159,-0.118,-0.12,-0.1212,-0.1232,-0.1242,-0.1234,-0.1234,-0.1253,-0.1259,-0.1234,-0.1271,-0.1262,-0.1267,-0.1246,-0.1251,-0.1254,-0.1242,-0.1208,0,0,0,0,0,-0.1063,-0.1083,-0.1115,-0.1139,-0.1157,-0.1181,-0.1197,-0.1214,-0.1233,-0.1244,-0.1247,-0.1262,-0.1267,-0.1274,-0.1279,-0.1291,-0.1281,-0.1303,-0.1306,-0.1309,-0.1304,-0.1292,-0.1292,-0.1292,-0.1292,-0.1292,0,0,-0.1065,-0.1087,-0.1099,-0.1137,-0.116,-0.1182,-0.1193,-0.1228,-0.124,-0.1239,-0.1261,-0.1268,-0.1275,-0.1288,-0.1299,-0.1294,-0.1309,-0.1315,-0.1316,-0.1309,-0.1296,-0.1295,-0.1295,-0.1296,-0.1295,-0.1295,0,0,-0.1072,-0.1104,-0.1121,-0.1144,-0.1185,-0.1198,-0.1215,-0.1248,-0.1261,-0.1282,-0.1285,-0.129,-0.1316,-0.1302,-0.1303,-0.1334,-0.1325,-0.1366,-0.1367,-0.1356,-0.1354,-0.1352,-0.1344,-0.1341,-0.137,-0.137,-0.137,0,-0.1073,-0.11,-0.113,-0.1154,-0.1175,-0.1209,-0.1231,-0.1246,-0.1277,-0.1282,-0.1296,-0.1314,-0.1309,-0.1304,-0.1324,-0.1332,-0.1344,-0.1337,-0.1354,-0.1353,-0.1351,-0.1343,-0.134,-0.1369,-0.1369,-0.1369,-0.1369,0,-0.1087,-0.1116,-0.1134,-0.1169,-0.1194,-0.1223,-0.1252,-0.1274,-0.1296,-0.1302,-0.1315,-0.131,-0.1319,-0.1326,-0.1332,-0.1333,-0.1351,-0.1351,-0.1327,-0.1349,-0.134,-0.1338,-0.1369,-0.1369,-0.1369,-0.1369,0,0,-0.1068,-0.1129,-0.1136,-0.1156,-0.1208,-0.1228,-0.1254,-0.1277,-0.1294,-0.1309,-0.1318,-0.1313,-0.1318,-0.1321,-0.1326,-0.1319,-0.131,-0.1347,-0.1346,-0.131,-0.1306,-0.1218,-0.1207,-0.1327,-0.1326,-0.1326,-0.1304,0,-0.107,-0.1108,-0.114,-0.1177,-0.1202,-0.1242,-0.1261,-0.1285,-0.1307,-0.1325,-0.1311,-0.1324,-0.1315,-0.133,-0.1317,-0.1319,-0.1306,-0.1317,-0.1316,-0.1315,-0.1209,-0.12,-0.1325,-0.1302,-0.1301,-0.1301,-0.1301,0,-0.1066,-0.1095,-0.113,-0.1184,-0.1201,-0.1226,-0.1269,-0.1292,-0.1317,-0.1335,-0.1336,-0.1344,-0.1328,-0.133,-0.1301,-0.1324,-0.1316,-0.1308,-0.1307,-0.1226,-0.1221,-0.128,-0.1296,-0.1296,-0.1297,-0.1297,-0.1297,0,-0.1024,-0.1085,-0.1111,-0.1131,-0.1196,-0.1219,-0.1254,-0.1291,-0.1309,-0.1344,-0.136,-0.1349,-0.1348,-0.1333,-0.131,-0.1324,-0.1286,-0.1292,-0.1195,-0.119,-0.1284,-0.1286,-0.1265,-0.1265,-0.1265,-0.1265,-0.1265,0,-0.1,-0.1026,-0.1098,-0.1113,-0.1148,-0.1205,-0.1239,-0.1273,-0.1317,-0.1323,-0.1361,-0.1353,-0.1357,-0.1336,-0.1317,-0.1236,-0.1279,-0.1181,-0.1169,-0.1281,-0.1283,-0.1282,-0.1284,-0.1264,-0.1264,-0.1264,-0.1264,0,-0.0944,-0.0993,-0.1029,-0.1103,-0.1128,-0.1153,-0.1227,-0.1243,-0.1302,-0.1314,-0.1327,-0.1356,-0.1316,-0.1301,-0.1271,-0.1225,-0.1172,-0.1137,-0.1257,-0.1255,-0.1088,-0.109,-0.102,-0.1016,-0.1013,-0.1011,-0.1009,0,-0.0915,-0.0929,-0.1008,-0.1026,-0.1062,-0.1112,-0.1139,-0.1218,-0.1231,-0.129,-0.1278,-0.1279,-0.1275,-0.1151,-0.1159,-0.1094,-0.1081,-0.1066,-0.1068,-0.1063,-0.1059,-0.1066,-0.1072,-0.1004,-0.1003,-0.1002,-0.1001,0,-0.0859,-0.0895,-0.0923,-0.0957,-0.0992,-0.1026,-0.1072,-0.1076,-0.115,-0.1218,-0.1185,-0.116,-0.1114,-0.1073,-0.1032,-0.0991,-0.1081,-0.1035,-0.1041,-0.1043,-0.1043,-0.1043,-0.1053,-0.0991,-0.0993,-0.0994,-0.0994,0,-0.0814,-0.0815,-0.0851,-0.0872,-0.0914,-0.0918,-0.096,-0.0971,-0.0999,-0.1073,-0.1055,-0.1058,-0.1092,-0.1019,-0.098,-0.0928,-0.091,-0.0895,-0.0909,-0.092,-0.0896,-0.0882,-0.0753,0,0,0,0,0,-0.0765,-0.0751,-0.0762,-0.0777,-0.0814,-0.0835,-0.09,-0.0944,-0.102,-0.0962,-0.1006,-0.0955,-0.09,-0.0913,-0.083,-0.0923,-0.0911,-0.0827,-0.0901,-0.0934,-0.0946,-0.0925,0,0,0,0,0,0,-0.0727,-0.0734,-0.0729,-0.0692,-0.0683,-0.071,-0.0747,-0.0802,-0.078,-0.0861,-0.0826,-0.0894,-0.0843,-0.0908,-0.0804,-0.0805,-0.0833,-0.0839,-0.0837,-0.0927,-0.0938,-0.0947,-0.093,0,0,0,0,0]},{"header":{"parameterUnit":"m.s-1","parameterCategory":2,"la1":30.2991,"la2":30.254,"lo1":-89.0895,"lo2":-89.0444,"dy":0.0017,"dx":0.0017,"nx":28,"ny":28,"refTime":"2025-05-25T09:00:00:Z","depth":"4","parameterNumber":3,"parameterNumberName":"V-component_of_CURRENTS"},"data":[0,0,0,0,0,0,0,0,0,0,0,0,0,0,0,0,0,0,0,0,0,0,0,0,0,0,0,0,0,0,0,0,0,0,0,0,0,0,0,0,0,0,0,0,0,0,0,0,0,0,0,0,0,0,0,0,0,0,-0.0345,-0.0345,0,-0.0305,-0.0305,-0.0304,-0.0263,-0.0263,-0.0263,-0.0262,-0.0238,-0.0238,-0.0237,0,0,0,0,0,0,0,0,0,0,0,0,0,-0.0348,-0.0348,-0.0345,-0.0345,-0.0344,-0.0305,-0.0305,-0.0304,-0.0264,-0.0263,-0.0263,-0.0262,-0.0238,-0.0238,-0.0237,0,0,0,0,0,0,0,0,0,0,0,0,0,-0.0329,-0.0348,-0.0345,-0.0321,-0.0319,-0.0306,-0.0305,-0.0304,-0.0264,-0.0263,-0.0263,-0.0262,-0.0238,-0.0238,-0.0237,-0.0244,0,0,-0.0235,-0.0235,0,0,0,0,0,0,0,0,-0.033,-0.0329,-0.0325,-0.0323,-0.032,-0.0291,-0.0297,-0.0285,-0.0264,-0.0282,-0.0262,-0.0262,-0.0259,-0.0257,-0.0247,-0.0243,-0.0242,-0.0235,-0.0235,-0.0235,-0.0235,0,0,0,0,0,0,0,-0.0332,-0.033,-0.0327,-0.0325,-0.0322,-0.03,-0.0297,-0.0294,-0.0272,-0.0281,-0.0278,-0.0278,-0.0257,-0.0247,-0.0246,-0.0241,-0.0235,-0.0235,-0.0235,-0.0234,-0.0242,-0.0242,0,0,0,0,0,0,-0.0344,-0.0332,-0.0328,-0.0326,-0.0327,-0.0301,-0.0297,-0.0299,-0.0272,-0.0268,-0.0278,-0.0276,-0.0248,-0.0247,-0.0245,-0.0256,-0.0235,-0.0234,-0.0234,-0.0241,-0.0242,-0.0242,0,0,0,0,0,0,-0.0344,-0.0344,-0.033,-0.0329,-0.0326,-0.0302,-0.0304,-0.0298,-0.0295,-0.027,-0.0266,-0.0281,-0.0248,-0.0246,-0.0239,-0.0255,-0.0234,-0.0234,-0.0241,-0.0241,-0.0242,-0.0275,0,0,0,0,0,0,-0.0345,-0.0345,-0.0349,-0.0331,-0.0327,-0.0328,-0.0304,-0.0298,-0.0296,-0.0293,-0.0271,-0.0268,-0.0247,-0.024,-0.0239,-0.0253,-0.0233,-0.024,-0.0241,-0.0242,-0.0273,-0.0277,-0.028,0,0,0,0,0,-0.0345,-0.0356,-0.035,-0.035,-0.0335,-0.0329,-0.0325,-0.0303,-0.0297,-0.0297,-0.0277,-0.0269,-0.0245,-0.024,-0.0238,-0.0253,-0.0239,-0.0241,-0.0242,-0.0272,-0.0276,-0.028,0,0,0,0,0,0,-0.0359,-0.0352,-0.0345,-0.0353,-0.0345,-0.0323,-0.0324,-0.0313,-0.0298,-0.0298,-0.0272,-0.0267,-0.027,-0.0257,-0.0252,-0.0258,-0.0243,-0.0244,-0.0267,-0.0271,-0.0274,-0.0263,-0.0233,0,0,0,0,0,-0.0367,-0.0373,-0.0361,-0.0369,-0.0368,-0.0349,-0.0345,-0.0334,-0.0319,-0.0312,-0.0292,-0.0278,-0.0274,-0.0268,-0.026,-0.0262,-0.0229,-0.0272,-0.0275,-0.0278,-0.0268,-0.0244,-0.0244,-0.0246,-0.0246,-0.0246,0,0,-0.0375,-0.0373,-0.0376,-0.0373,-0.0365,-0.0364,-0.0345,-0.0347,-0.0343,-0.0314,-0.0302,-0.0292,-0.0278,-0.0276,-0.0277,-0.0266,-0.0257,-0.0279,-0.0282,-0.027,-0.0245,-0.0244,-0.0244,-0.0247,-0.0247,-0.0247,0,0,-0.0397,-0.0394,-0.0406,-0.0402,-0.0399,-0.0384,-0.039,-0.0372,-0.0361,-0.0353,-0.0334,-0.033,-0.0314,-0.0303,-0.0298,-0.0318,-0.0279,-0.032,-0.0323,-0.0301,-0.03,-0.0299,-0.0241,-0.0234,-0.0317,-0.0318,-0.0318,0,-0.0406,-0.0417,-0.0409,-0.0417,-0.0414,-0.0398,-0.0405,-0.0393,-0.0372,-0.0359,-0.0355,-0.0326,-0.0327,-0.0317,-0.0325,-0.0326,-0.0288,-0.031,-0.0304,-0.0302,-0.0301,-0.0242,-0.0234,-0.0319,-0.0319,-0.0319,-0.0319,0,-0.0431,-0.044,-0.0448,-0.0449,-0.0445,-0.0451,-0.0435,-0.0425,-0.0412,-0.039,-0.0375,-0.0362,-0.0339,-0.0351,-0.0345,-0.0337,-0.0304,-0.0315,-0.0292,-0.0302,-0.0239,-0.0231,-0.0322,-0.0321,-0.0321,-0.032,0,0,-0.045,-0.0463,-0.0466,-0.047,-0.0463,-0.0462,-0.0456,-0.0438,-0.0426,-0.0404,-0.0375,-0.0383,-0.0361,-0.0354,-0.0347,-0.0332,-0.0301,-0.0318,-0.0316,-0.0256,-0.0213,-0.02,-0.0189,-0.0305,-0.0305,-0.0304,-0.0167,0,-0.0469,-0.0495,-0.0491,-0.0504,-0.0512,-0.0491,-0.0483,-0.0464,-0.044,-0.0405,-0.0382,-0.0361,-0.0366,-0.0357,-0.0343,-0.0307,-0.0282,-0.0334,-0.0215,-0.021,-0.0196,-0.0181,-0.0301,-0.016,-0.0158,-0.0157,-0.0156,0,-0.0491,-0.0505,-0.0528,-0.0528,-0.0529,-0.0532,-0.0508,-0.0498,-0.0448,-0.0424,-0.0385,-0.0354,-0.0315,-0.0331,-0.0253,-0.0279,-0.0249,-0.0224,-0.0218,-0.0188,-0.0183,-0.0152,-0.014,-0.0141,-0.0142,-0.0143,-0.0144,0,-0.0507,-0.0526,-0.0547,-0.0548,-0.0546,-0.0549,-0.0541,-0.0507,-0.0492,-0.0431,-0.0403,-0.0339,-0.0305,-0.0254,-0.0194,-0.022,-0.0095,-0.0127,-0.0078,-0.0075,-0.0112,-0.0115,-0.0082,-0.0082,-0.0082,-0.0082,-0.0083,0,-0.0522,-0.0538,-0.0561,-0.0571,-0.0588,-0.0574,-0.0574,-0.0551,-0.0508,-0.0481,-0.0418,-0.0377,-0.0289,-0.0206,-0.0161,-0.0069,-0.0063,-0.0061,-0.0043,-0.0127,-0.0133,-0.0104,-0.0109,-0.0077,-0.0078,-0.0079,-0.008,0,-0.0533,-0.0549,-0.0577,-0.0592,-0.06,-0.0612,-0.0609,-0.06,-0.0556,-0.0514,-0.0492,-0.0387,-0.0274,-0.0168,-0.0064,-0.0029,0.0051,0.0073,0.0023,0.0033,0.0053,0.0045,0.0149,0.015,0.0152,0.0153,0.0154,0,-0.054,-0.0558,-0.06,-0.0623,-0.0636,-0.0653,-0.066,-0.0629,-0.0612,-0.0526,-0.0499,-0.0376,-0.03,-0.0102,-0.0016,0.0127,0.011,0.017,0.0064,0.0068,0.0075,0.0065,0.0056,0.0156,0.0156,0.0156,0.0157,0,-0.0551,-0.0574,-0.0599,-0.0648,-0.0676,-0.0694,-0.0698,-0.0684,-0.0632,-0.0596,-0.0489,-0.0379,-0.0238,-0.0099,0.0034,0.011,0.0145,0.0183,0.0179,0.0079,0.0077,0.0081,0.007,0.0161,0.016,0.016,0.016,0,-0.0562,-0.0587,-0.0628,-0.0664,-0.0705,-0.0719,-0.0718,-0.0682,-0.0652,-0.0553,-0.052,-0.0368,-0.0272,-0.0107,0.0003,0.0109,0.0094,0.0089,0.009,0.0086,0.0008,-0.0008,0.0081,0,0,0,0,0,-0.0568,-0.0596,-0.0636,-0.068,-0.0719,-0.0736,-0.0733,-0.0719,-0.0671,-0.06,-0.0555,-0.0424,-0.0236,-0.0149,-0.0044,-0.0006,0.01,0.0117,0.0091,0.0186,0.0181,0.0098,0,0,0,0,0,0,-0.0575,-0.0618,-0.0636,-0.0682,-0.071,-0.0744,-0.0742,-0.0711,-0.0658,-0.0597,-0.049,-0.0424,-0.0235,-0.0296,-0.0049,-0.0016,-0.0025,0.0212,0.0213,0.0189,0.0184,0.018,0.0093,0,0,0,0,0]}]]